Regional Weather Roundup
Issued by NWS

Home | Current Version | Previous Version | Graphics & Text | Print | Product List | Glossary On
Versions: 1 2 3 4 5 6 7 8 9 10 11 12 13 14 15 16 17 18 19 20 21 22 23 24 25 26 27 28 29 30 31 32 33 34 35 36 37 38 39 40 41 42 43 44 45 46 47 48 49 50
000
ASUS43 KOAX 260902
RWRNE

WEATHER ROUNDUP FOR NEBRASKA
NATIONAL WEATHER SERVICE OMAHA NE
400 AM CDT MON JUN 26 2017

NOTES: SATELLITE DATA IS BEING USED TO AUGMENT CLOUD COVER ABOVE
       12000 FEET.
       "FAIR" INDICATES FEW OR NO CLOUDS BELOW 12,000 FEET WITH NO
       SIGNIFICANT WEATHER AND/OR OBSTRUCTIONS TO VISIBILITY.

  * THESE STATIONS DO NOT REPORT WEATHER SUCH AS RAIN...SNOW OR FOG.

NEZ001>004-019>022-054>056-261000-
NEBRASKA PANHANDLE

CITY           SKY/WX    TMP DP  RH WIND       PRES   REMARKS
SCOTTSBLUFF    CLEAR     56  51  84 N7        30.23S
ALLIANCE       CLEAR     50  48  93 SE5       30.23S
CHADRON        CLEAR     49  39  68 E3        30.24R
SIDNEY         CLEAR     52  51  97 W5        30.25F
$$

NEZ057>060-069>072-079>082-261000-
SOUTHWEST NEBRASKA

CITY           SKY/WX    TMP DP  RH WIND       PRES   REMARKS
NORTH PLATTE   CLEAR     53  51  93 CALM      30.23S
IMPERIAL       CLEAR     57  55  93 S6        30.23F
MCCOOK         CLOUDY    60  58  92 SW13      30.24S
$$

NEZ005>010-023>029-035>040-094-261000-
NORTH CENTRAL NEBRASKA

CITY           SKY/WX    TMP DP  RH WIND       PRES   REMARKS
VALENTINE      CLEAR     56  40  55 NE13      30.21R
BROKEN BOW     MOCLDY    57  52  83 W7        30.21S
ORD            CLEAR     57  50  77 SW7       30.18F
$$

NEZ041-046>049-061>064-073>077-083>087-261000-
SOUTH CENTRAL NEBRASKA

CITY           SKY/WX    TMP DP  RH WIND       PRES   REMARKS
GRAND ISLAND   CLOUDY    61  54  77 SW12      30.22S
HASTINGS       CLOUDY    60  53  77 W9        30.24S
$$

NEZ011>018-030>034-042>045-261000-
NORTHEAST NEBRASKA

CITY           SKY/WX    TMP DP  RH WIND       PRES   REMARKS
NORFOLK        PTCLDY    61  48  63 NE14      30.17R
TEKAMAH        CLOUDY    58  47  66 N16       30.23R
$$

NEZ050>053-065>068-078-088>093-261000-
SOUTHEAST NEBRASKA

CITY           SKY/WX    TMP DP  RH WIND       PRES   REMARKS
OMAHA EPPLEY   LGT RAIN  60  51  72 S3        30.18R
FALLS CITY     CLEAR     51  49  92 E3        30.18F
$$

NEZ044-045-051>053-067-261000-
OMAHA AREA

CITY           SKY/WX    TMP DP  RH WIND       PRES   REMARKS
OMAHA EPPLEY   LGT RAIN  60  51  72 S3        30.18R
$$




USA.gov is the U.S. government's official web portal to all federal, state and local government web resources and services.